Terminal Aerodrome Forecast
Issued by NWS

Home | Current Version | Previous Version | Text Only | Print | Product List | Glossary On
Versions: 1 2 3 4 5 6 7 8 9 10 11 12 13 14 15 16 17 18 19 20 21 22 23 24 25 26 27 28 29 30 31 32
000
FTUS41 KOKX 080234 AAB
TAFHPN
TAF AMD
KHPN 080234Z 0803/0824 18006KT 6SM BR SCT040 BKN250
     FM080600 VRB05KT 3SM BR SCT030 BKN250
     FM081400 27008KT P6SM VCTS BKN040CB
      AMD NOT SKED=

USA.gov is the U.S. government's official web portal to all federal, state and local government web resources and services.